EHI
0 0 0 0 0 0 0 0 0 0 0 0 0 0 0 0 0 0 0 0 0 0 0 0 0 0 0 0 0 0 0 0 0 0 0 0 0 0 0 0 0 0 0
0 0 0 0 0 0 0 0 0 0 0 0 0 0 0 0 0 0 0 0 0 0 0 0 0 0 0 0 0 0 0 0 0 0 0 0 0 0 0 0 0 0 0
0 0 0 0 0 0 0 0 0 0 0 0 0 0 0 0 0 0 0 0 0 0 0 0 0 0 0 0 0 0 0 0 0 0 0 0 0 0 0 0 0 0 0
1 0 0 0 0 0 0 0 1 1 0 0 0 0 0 0 0 0 0 0 0 0 0 0 0 0 0 0 0 0 0 0 0 0 0 0 0 0 0 0 0 0 0
2 1 0 0 1 0 0 1 2 2 1 0 0 0 0 0 0 0 0 0 0 0 0 0 0 0 0 0 0 0 0 0 0 0 0 0 0 0 0 0 0 0 0
4 3 1 1 1 1 1 1 2 2 1 0 0 0 0 0 0 0 0 0 0 0 0 0 0 0 0 0 0 0 1 1 1 0 0 0 0 0 0 0 0 0 0
6 5 3 2 3 3 3 2 2 1 1 0 0 0 0 0 0 0 0 0 0 0 0 0 0 0 0 0 0 1 2 3 2 1 0 0 0 0 0 0 0 0 0
9 8 6 4 4 6 6 5 4 3 2 1 1 1 0 0 0 0 0 0 0 0 0 0 0 0 0 0 0 2 4 4 3 2 1 0 0 0 0 0 0 0 0
10 10 8 7 7 8 8 8 7 5 4 4 3 2 1 0 0 0 0 0 0 0 0 0 0 0 0 1 1 2 3 3 2 2 1 0 0 0 0 0 0 0 0
9 9 9 9 10 10 10 9 9 9 8 7 5 4 2 1 1 1 0 0 0 0 0 0 0 0 1 2 2 1 1 1 0 1 1 0 0 0 0 0 0 0 0
9 9 9 11 12 12 10 8 8 10 10 9 6 4 4 4 4 3 1 0 0 0 0 0 0 0 1 2 2 1 0 0 0 0 0 0 0 0 0 0 0 0 0
12 10 10 11 13 12 9 7 8 9 9 8 7 6 6 7 7 6 3 1 0 0 0 0 0 0 0 1 1 0 0 0 0 0 0 0 0 0 0 0 0 0 0
13 11 10 12 13 12 9 8 9 9 8 7 7 7 8 10 10 9 6 2 0 0 0 0 0 1 1 1 1 1 1 0 0 0 0 0 0 0 0 0 0 0 0
13 12 11 13 14 12 10 9 11 11 10 9 8 7 8 9 9 10 9 7 3 1 1 1 1 2 2 3 2 1 1 0 0 0 0 0 0 0 0 0 0 0 0
13 13 13 14 13 11 9 8 9 11 12 11 9 7 7 8 8 10 13 12 8 4 1 2 3 4 5 3 2 1 0 0 0 0 0 0 0 0 0 0 0 0 0
15 14 13 12 11 11 11 9 7 8 10 10 10 8 8 8 9 11 14 15 13 7 2 2 3 5 6 4 2 1 0 0 0 0 0 0 0 0 0 0 0 0 0
15 13 12 9 9 11 13 11 8 8 9 9 9 10 10 11 11 12 14 16 16 13 7 3 3 5 8 9 8 5 2 0 0 0 0 0 0 0 0 0 0 0 0
12 12 10 8 8 11 12 11 10 10 10 11 11 12 12 13 15 15 16 18 19 19 15 8 6 9 13 15 15 12 7 4 2 0 0 0 0 0 0 0 0 0 0
11 11 11 8 9 11 12 12 12 12 12 13 14 14 14 15 17 19 21 22 22 23 21 16 13 16 18 19 19 16 13 11 5 0 0 0 0 0 0 0 0 0 0
12 12 12 11 11 12 13 14 15 15 15 15 15 15 14 14 15 17 20 23 25 25 24 21 18 19 20 20 19 16 14 13 8 3 1 0 0 0 0 0 0 0 0
16 16 15 14 12 11 12 13 15 18 18 17 16 15 13 11 10 9 12 16 20 22 23 22 21 20 19 19 17 14 12 11 10 7 5 3 1 1 1 1 0 0 0
22 21 19 17 15 12 10 8 10 15 19 19 18 17 13 9 7 5 5 6 8 12 16 19 20 19 18 16 14 12 11 10 10 10 9 5 2 2 2 2 1 0 0
25 24 22 20 18 15 10 4 4 10 16 18 17 16 12 9 8 7 6 5 4 5 7 10 13 15 16 16 14 11 9 9 8 9 8 4 2 3 3 2 1 0 0
28 25 22 21 19 15 8 2 2 7 11 12 13 13 11 9 8 8 9 10 9 5 3 3 6 8 10 11 10 7 6 6 6 6 5 3 2 3 3 2 1 0 0
29 25 21 20 19 14 8 2 3 7 8 8 8 9 9 8 6 5 7 10 11 8 4 2 2 2 3 4 3 3 3 3 3 3 4 4 3 3 3 3 1 1 0
28 22 18 19 19 14 8 3 3 6 7 7 7 7 6 6 4 2 4 8 10 8 5 2 2 1 0 0 0 0 1 1 1 2 4 4 4 3 3 3 2 2 1
Wind_Speed
3 4 2 2 2 3 3 2 2 3 3 3 3 3 3 3 3 3 7 8 6 5 5 6 6 7 7 6 6 7 7 7 6 6 7 7 7 7 7 6 7 7 6
3 3 3 2 2 2 2 1 2 2 2 2 2 3 2 3 3 3 5 8 7 6 5 5 6 6 6 6 6 7 7 6 7 6 7 7 7 7 7 6 7 7 6
3 2 2 2 2 3 3 1 2 2 2 2 2 2 2 2 3 2 2 3 6 8 7 6 6 6 6 6 6 7 7 7 7 6 7 7 7 7 7 7 7 7 7
4 3 2 2 2 2 3 2 2 1 1 1 1 1 2 2 3 3 3 3 2 4 8 8 6 6 6 6 7 7 7 7 8 8 8 7 8 8 8 8 7 7 7
5 4 2 1 3 2 2 2 2 1 1 1 2 2 2 2 3 3 3 4 3 2 3 9 9 7 7 7 7 7 7 8 8 8 9 9 9 9 9 9 8 8 8
5 4 3 3 4 3 2 1 1 1 2 2 2 1 2 2 3 3 4 4 4 5 4 4 7 8 9 7 7 8 8 9 9 9 9 9 9 9 9 9 9 8 8
5 5 3 4 4 3 3 3 3 4 3 2 2 3 3 5 4 4 4 4 5 5 4 4 4 4 7 11 9 8 9 9 9 9 9 10 9 9 9 10 9 9 9
6 6 5 5 5 3 4 4 4 3 3 3 3 3 3 3 5 5 4 5 5 5 6 7 5 5 5 5 8 11 10 10 9 10 10 10 10 10 10 10 10 10 10
7 5 5 6 4 5 4 5 5 5 4 4 4 3 3 1 1 3 4 4 4 4 5 5 7 6 7 5 5 11 11 10 10 10 10 10 10 10 11 11 11 11 11
7 7 7 6 5 5 4 6 5 4 5 5 3 4 4 4 4 2 3 4 5 6 6 5 5 6 7 6 5 5 10 10 10 11 11 10 11 11 12 12 12 12 12
7 7 7 6 6 5 5 5 4 5 5 5 5 4 4 4 6 5 3 3 3 5 5 6 5 5 6 7 6 7 11 11 11 11 11 11 11 11 12 13 13 13 13
6 8 7 6 7 6 5 6 6 7 6 5 5 5 4 4 4 4 5 5 4 3 4 4 5 5 6 6 7 7 10 11 11 11 11 11 11 11 12 13 13 14 14
6 7 7 7 7 6 6 6 7 6 6 6 7 6 5 5 4 4 5 5 5 4 4 5 5 5 5 6 5 8 10 11 11 11 11 11 11 11 11 12 12 13 13
6 6 7 7 7 7 7 6 6 6 6 7 8 7 6 6 5 5 5 5 6 5 4 5 4 5 4 5 3 8 8 11 11 11 11 11 11 11 11 11 11 11 11
6 7 7 7 7 7 7 6 5 6 6 7 7 8 7 6 6 6 5 5 6 6 6 4 4 4 4 3 3 6 6 8 10 10 10 10 10 10 10 10 10 10 10
6 7 7 7 7 7 7 7 7 6 7 7 6 6 7 7 5 6 6 6 6 7 7 5 4 4 2 4 4 5 5 6 9 10 9 9 9 9 9 10 10 10 10
7 7 7 7 7 7 7 6 7 7 8 7 7 7 8 8 6 6 6 6 6 7 8 7 5 3 4 6 4 5 6 6 5 10 9 9 9 9 9 9 9 9 9
7 7 7 7 7 7 6 7 8 8 8 8 8 8 9 7 7 7 6 7 6 6 7 8 6 5 6 6 6 7 6 5 5 7 9 8 8 8 8 8 8 8 8
8 7 7 7 7 6 7 7 7 8 8 8 7 7 8 7 7 6 7 7 6 6 6 7 7 5 5 5 6 7 6 5 6 5 9 9 8 7 7 7 7 7 7
7 6 7 7 6 6 6 6 7 7 7 7 6 7 7 7 7 7 6 7 7 7 6 7 7 6 5 5 5 5 5 5 5 5 4 5 7 8 8 8 7 7 7
6 6 6 6 5 5 5 5 6 6 5 6 6 6 6 5 5 4 5 5 6 6 6 6 6 6 6 5 5 5 5 5 5 4 4 4 5 5 6 8 8 7 7
5 5 5 4 4 4 1 1 4 5 5 5 6 5 5 5 4 4 5 5 6 7 6 6 5 6 6 6 5 5 5 5 4 3 4 4 4 4 4 3 4 6 7
5 4 4 4 4 2 1 2 4 5 5 4 4 4 4 3 4 4 4 4 4 5 6 6 6 7 6 6 6 6 5 5 5 3 3 5 3 4 3 2 5 5 5
4 4 4 3 3 1 1 1 2 4 3 2 3 3 3 4 4 4 4 3 3 2 3 3 4 5 5 6 6 6 5 4 4 3 3 4 4 4 4 3 6 5 5
4 3 3 2 2 1 2 0 1 2 1 1 1 2 3 2 3 3 3 3 2 2 0 1 1 2 3 5 4 3 3 4 4 2 2 4 4 4 5 4 5 7 7
4 4 3 2 2 2 3 1 1 1 1 1 1 1 3 3 3 2 2 2 2 2 2 0 0 1 1 1 2 3 4 4 3 2 1 3 4 4 4 3 2 3 4
Wind_Direction
141 125 118 114 114 124 143 139 108 115 118 117 112 108 105 99 108 118 120 139 150 155 153 152 152 153 155 160 161 162 162 163 160 159 163 164 161 160 162 165 165 161 160
132 138 149 143 143 138 92 112 122 138 127 111 120 120 126 125 124 140 134 148 164 170 172 169 168 169 172 175 175 176 179 175 171 174 176 176 174 174 175 178 178 177 173
152 173 158 172 153 141 144 162 134 143 160 155 148 153 145 140 134 142 144 155 161 171 180 185 186 186 191 191 189 191 191 187 181 181 187 188 187 185 188 191 189 186 186
183 201 194 172 165 176 171 168 185 168 151 168 149 188 140 155 167 175 172 179 179 168 174 184 195 201 205 206 203 201 198 195 194 193 196 196 197 198 198 199 199 195 195
199 217 215 172 200 197 199 218 147 208 190 203 190 190 196 176 176 194 179 183 184 201 177 165 188 202 210 215 211 209 204 202 202 203 203 203 206 206 205 205 206 204 205
205 222 207 205 220 204 205 217 194 230 241 244 255 194 228 204 203 197 213 194 191 200 206 183 186 190 201 213 217 217 214 210 207 208 209 209 210 209 206 209 212 213 213
204 221 226 199 228 222 224 214 220 205 225 234 245 237 227 223 212 213 224 223 202 203 206 209 221 205 185 196 209 219 220 216 212 212 215 215 216 214 212 214 215 216 216
216 213 221 221 217 220 220 224 230 246 237 222 254 260 242 206 213 210 207 217 225 214 212 210 213 216 236 194 179 201 215 219 218 218 218 218 218 218 219 218 216 218 219
220 233 225 235 226 231 220 223 220 231 242 236 244 269 286 290 231 188 215 216 218 230 231 216 216 212 221 224 193 189 202 214 221 224 223 221 219 218 220 220 221 223 224
219 221 227 230 235 236 224 231 220 234 243 246 226 241 268 307 295 255 210 202 209 223 236 240 225 211 217 221 207 195 192 207 218 227 229 227 224 220 221 224 226 226 227
219 223 224 227 230 237 233 244 234 239 238 246 247 244 241 242 252 270 274 254 225 224 218 225 230 228 219 222 220 203 187 203 214 223 230 233 232 228 225 227 232 233 232
216 218 223 225 230 236 231 232 234 230 243 252 257 255 252 253 257 261 271 266 253 234 229 233 236 228 225 224 220 180 187 203 214 221 227 232 234 233 231 231 234 237 238
216 213 222 225 233 233 236 235 229 240 237 240 246 251 250 251 261 267 273 280 281 260 232 234 229 230 229 228 214 181 199 206 215 222 226 230 233 233 232 232 235 239 240
227 215 221 227 232 234 234 232 238 230 233 240 247 253 258 257 261 257 261 274 277 267 243 246 236 228 235 237 189 198 215 200 213 222 227 229 231 232 230 231 234 237 239
230 223 228 230 229 228 232 231 236 240 236 239 244 238 247 253 251 256 255 257 267 276 270 243 240 230 229 237 201 233 236 192 205 217 223 226 229 231 229 231 234 237 237
231 229 231 231 230 229 228 231 237 234 238 242 250 259 255 257 257 255 256 254 254 264 274 274 256 254 257 251 203 236 241 193 199 208 215 220 225 228 227 228 232 233 234
225 228 230 231 232 233 231 232 240 237 238 245 247 247 249 259 261 259 251 250 249 251 261 268 263 259 242 253 245 246 241 237 210 197 206 213 217 222 224 226 227 229 231
221 224 227 229 232 232 231 233 240 240 240 245 251 254 255 251 250 260 260 255 254 253 256 267 269 258 245 240 238 246 249 244 242 184 194 207 215 219 221 222 223 225 227
218 220 222 228 232 235 234 235 239 244 245 249 253 255 258 258 255 256 258 260 259 255 253 260 263 262 254 245 240 240 244 249 249 202 187 194 202 208 213 215 217 218 220
215 216 219 224 227 234 235 237 239 242 248 252 256 258 260 259 257 259 257 258 260 261 257 257 261 257 249 242 242 245 240 228 240 246 230 205 191 197 206 208 208 211 213
205 206 214 220 224 228 234 239 241 241 245 252 257 259 262 270 281 276 273 269 268 262 257 254 256 256 252 244 242 244 250 246 233 237 239 231 211 215 205 202 205 210 213
195 197 204 214 228 240 210 257 262 259 257 257 261 266 267 260 252 241 257 275 283 272 272 270 266 266 268 263 262 258 256 254 248 224 245 251 246 250 247 228 175 186 203
179 191 200 212 229 249 123 216 242 257 261 267 269 271 275 285 279 263 238 233 258 266 268 274 276 278 276 273 270 262 256 259 267 270 262 264 255 255 251 177 154 173 191
175 185 193 201 214 188 109 224 253 237 257 277 284 287 283 284 290 294 279 267 273 282 269 257 277 287 293 293 269 265 268 255 249 254 265 270 265 260 261 226 167 180 194
160 163 159 168 182 98 73 98 259 217 215 257 306 336 308 297 341 309 266 265 276 282 195 131 313 315 360 357 336 292 268 256 264 256 254 267 275 276 262 240 183 183 192
155 155 137 127 109 88 78 73 274 227 197 185 105 54 38 18 21 352 279 275 281 296 308 80 141 295 318 16 10 324 303 286 282 285 337 282 280 286 273 258 246 220 205